[[{"header":{"parameterUnit":"m.s-1","parameterCategory":1,"la1":30.2991,"la2":30.254,"lo1":-89.0895,"lo2":-89.0444,"dy":0.0017,"dx":0.0017,"nx":28,"ny":28,"refTime":"2025-08-16T09:00:00:Z","depth":0,"parameterNumber":2,"parameterNumberName":"U-component_of_WINDS"},"data":[0,0,0,0,0,0,0,0,0,0,0,0,0,0,0,0,0,0,0,0,0,0,0,0,0,0,0,0,0,0,0,0,0,0,0,0,0,0,0,0,0,0,0,0,0,0,0,0,0,0,0,0,0,0,0,0,0,0,0.6872,0.6872,0,0.6887,0.6887,0.6887,0.6916,0.6917,0.6917,0.6918,0.6931,0.6931,0.6931,0,0,0,0,0,0,0,0,0,0,0,0,0,0.6869,0.6869,0.6872,0.6872,0.6872,0.6887,0.6887,0.6887,0.6916,0.6917,0.6918,0.6918,0.6931,0.6931,0.6931,0,0,0,0,0,0,0,0,0,0,0,0,0,0.6875,0.6869,0.6872,0.6889,0.689,0.6887,0.6887,0.6887,0.6916,0.6917,0.6918,0.6919,0.6931,0.6931,0.6931,0.6911,0,0,0.693,0.693,0,0,0,0,0,0,0,0,0.6875,0.6875,0.6886,0.6888,0.6889,0.6901,0.689,0.6895,0.6916,0.6906,0.6918,0.6919,0.692,0.6921,0.6922,0.6912,0.6912,0.693,0.693,0.6929,0.6929,0,0,0,0,0,0,0,0.6874,0.6875,0.6878,0.6886,0.6888,0.6895,0.6897,0.6891,0.6908,0.6907,0.6909,0.6911,0.6921,0.6922,0.6922,0.6913,0.693,0.693,0.6929,0.6929,0.6888,0.6887,0,0,0,0,0,0,0.6872,0.6874,0.6877,0.6878,0.6884,0.6895,0.6897,0.6896,0.6908,0.6911,0.691,0.6912,0.6922,0.6922,0.6923,0.6901,0.6929,0.6929,0.6929,0.6889,0.6888,0.6887,0,0,0,0,0,0,0.6871,0.6872,0.6877,0.6877,0.6878,0.6894,0.6893,0.6896,0.6896,0.691,0.6913,0.6907,0.6923,0.6923,0.6914,0.6901,0.6929,0.6929,0.689,0.6889,0.6888,0.6856,0,0,0,0,0,0,0.6871,0.6871,0.6864,0.6876,0.6878,0.6868,0.6892,0.6895,0.6896,0.6899,0.6909,0.6911,0.6923,0.6914,0.6914,0.6901,0.6929,0.6891,0.689,0.6888,0.6858,0.6854,0.685,0,0,0,0,0,0.6871,0.6854,0.6864,0.6864,0.6869,0.6867,0.6868,0.6882,0.6895,0.6888,0.6897,0.6911,0.6903,0.6913,0.6913,0.69,0.6892,0.689,0.6888,0.686,0.6855,0.685,0,0,0,0,0,0,0.6839,0.6856,0.6867,0.6853,0.6859,0.6872,0.6863,0.6876,0.6877,0.688,0.6898,0.69,0.6888,0.6894,0.6904,0.6882,0.69,0.6898,0.6879,0.6874,0.687,0.6868,0.6928,0,0,0,0,0,0.683,0.6828,0.6843,0.6829,0.6832,0.6847,0.6847,0.6858,0.6864,0.6866,0.6874,0.6879,0.6878,0.6876,0.6876,0.686,0.6862,0.6851,0.6847,0.6844,0.6841,0.6833,0.6828,0.688,0.688,0.688,0,0,0.6812,0.6821,0.6818,0.6823,0.6829,0.6825,0.6848,0.6843,0.6841,0.6865,0.6857,0.6863,0.687,0.6857,0.6852,0.6861,0.6827,0.6841,0.6838,0.6837,0.683,0.6825,0.6821,0.6879,0.6879,0.6879,0,0,0.6777,0.6784,0.6774,0.6779,0.6788,0.6798,0.6796,0.6808,0.6813,0.6806,0.6824,0.6821,0.6819,0.6823,0.6825,0.6793,0.6806,0.6793,0.677,0.6762,0.6758,0.6755,0.6743,0.6739,0.6791,0.679,0.679,0,0.6754,0.6749,0.6767,0.6761,0.6763,0.6786,0.6775,0.678,0.6787,0.6787,0.6798,0.6796,0.6802,0.6791,0.6783,0.6784,0.6782,0.6791,0.6758,0.6754,0.6751,0.674,0.6736,0.6789,0.6789,0.6789,0.6789,0,0.6719,0.6716,0.6707,0.6714,0.6715,0.6707,0.6724,0.6722,0.6734,0.6744,0.6736,0.6745,0.6747,0.6745,0.6756,0.6736,0.6741,0.6754,0.6772,0.6744,0.6734,0.673,0.6786,0.6787,0.6787,0.6788,0,0,0.6662,0.6681,0.6677,0.6681,0.6693,0.6691,0.6684,0.6687,0.6685,0.669,0.6685,0.6683,0.6696,0.6698,0.671,0.6703,0.6677,0.6718,0.6718,0.6709,0.6655,0.6644,0.6639,0.6687,0.6686,0.6686,0.6654,0,0.6629,0.6618,0.6635,0.6621,0.6618,0.6641,0.6635,0.6642,0.6651,0.665,0.666,0.6658,0.6676,0.6677,0.6672,0.6682,0.6667,0.6684,0.6681,0.6681,0.6677,0.6634,0.6622,0.6591,0.6651,0.665,0.665,0,0.6588,0.6592,0.6577,0.6591,0.659,0.6585,0.6589,0.6588,0.6596,0.6604,0.6607,0.6622,0.6616,0.6635,0.6627,0.6639,0.6639,0.6644,0.6643,0.6642,0.6662,0.663,0.6582,0.6577,0.6644,0.6644,0.6645,0,0.6546,0.6548,0.654,0.6543,0.6559,0.6554,0.6561,0.657,0.6571,0.6575,0.6576,0.6579,0.658,0.6582,0.6597,0.661,0.6588,0.6608,0.6593,0.6593,0.6586,0.6586,0.6536,0.6588,0.6588,0.6588,0.6588,0,0.6506,0.6496,0.6522,0.6516,0.6506,0.6526,0.6515,0.6524,0.6532,0.6529,0.655,0.6546,0.6567,0.6566,0.6578,0.657,0.657,0.6576,0.6579,0.6573,0.6572,0.6572,0.6574,0.6587,0.6587,0.6588,0.6588,0,0.6457,0.6474,0.6466,0.6483,0.6487,0.6478,0.6492,0.6488,0.65,0.6495,0.6495,0.6513,0.6513,0.6529,0.6532,0.654,0.6526,0.6534,0.6523,0.6525,0.6509,0.651,0.6456,0.645,0.6508,0.6507,0.6507,0,0.643,0.6423,0.6439,0.6439,0.6444,0.6443,0.6445,0.6465,0.6465,0.6475,0.647,0.6472,0.6474,0.6473,0.6486,0.6488,0.6495,0.6476,0.6495,0.649,0.6494,0.6493,0.6492,0.6471,0.6471,0.647,0.647,0,0.6379,0.6388,0.6389,0.6394,0.6396,0.64,0.6406,0.6404,0.6427,0.6426,0.6427,0.6429,0.6433,0.6434,0.6439,0.6446,0.6461,0.6464,0.646,0.6453,0.6447,0.645,0.6511,0.6464,0.6465,0.6465,0.6466,0.6466,0.6339,0.6334,0.6345,0.6346,0.6353,0.6358,0.6355,0.6367,0.6368,0.6373,0.6385,0.6384,0.6394,0.6403,0.6408,0.6407,0.6417,0.6412,0.641,0.6408,0.6405,0.6449,0.6408,0.6409,0.6409,0.6409,0.6409,0,0.6288,0.6297,0.6298,0.6306,0.6307,0.6324,0.6331,0.6331,0.6329,0.6338,0.634,0.6341,0.6343,0.6357,0.6361,0.6357,0.6364,0.6357,0.6357,0.6358,0.6397,0.6399,0.6351,0.6352,0.6352,0.6352,0.6352,0.6352,0.6262,0.6254,0.6265,0.6261,0.627,0.6269,0.6272,0.6277,0.6284,0.6284,0.6286,0.6296,0.6307,0.6312,0.6314,0.6318,0.6318,0.6308,0.6315,0.635,0.6355,0.6361,0.6363,0.6309,0.6309,0.6276,0.6276,0.6276]},{"header":{"parameterUnit":"m.s-1","parameterCategory":1,"la1":30.2991,"la2":30.254,"lo1":-89.0895,"lo2":-89.0444,"dy":0.0017,"dx":0.0017,"nx":28,"ny":28,"refTime":"2025-08-16T09:00:00:Z","depth":0,"parameterNumber":3,"parameterNumberName":"V-component_of_WINDS"},"data":[0,0,0,0,0,0,0,0,0,0,0,0,0,0,0,0,0,0,0,0,0,0,0,0,0,0,0,0,0,0,0,0,0,0,0,0,0,0,0,0,0,0,0,0,0,0,0,0,0,0,0,0,0,0,0,0,0,0,-2.4902,-2.4902,0,-2.4962,-2.4963,-2.4963,-2.4939,-2.4938,-2.4936,-2.4935,-2.4996,-2.4999,-2.5002,0,0,0,0,0,0,0,0,0,0,0,0,0,-2.4765,-2.4768,-2.4902,-2.4903,-2.4903,-2.4962,-2.4963,-2.4964,-2.4939,-2.4938,-2.4936,-2.4934,-2.4995,-2.4998,-2.5002,0,0,0,0,0,0,0,0,0,0,0,0,0,-2.4825,-2.4769,-2.4902,-2.4898,-2.4899,-2.4962,-2.4963,-2.4964,-2.494,-2.4938,-2.4936,-2.4934,-2.4994,-2.4998,-2.5002,-2.5072,0,0,-2.5016,-2.5018,0,0,0,0,0,0,0,0,-2.4822,-2.483,-2.4898,-2.4899,-2.4899,-2.4941,-2.4937,-2.5,-2.494,-2.4924,-2.4935,-2.4933,-2.4979,-2.4985,-2.5001,-2.5075,-2.5077,-2.5016,-2.5019,-2.5021,-2.5022,0,0,0,0,0,0,0,-2.4818,-2.4827,-2.4926,-2.4899,-2.49,-2.4894,-2.49,-2.4949,-2.4963,-2.4925,-2.4924,-2.4931,-2.4979,-2.4996,-2.5002,-2.5078,-2.5016,-2.502,-2.5023,-2.5024,-2.5213,-2.5216,0,0,0,0,0,0,-2.4813,-2.4824,-2.4924,-2.4927,-2.4854,-2.4898,-2.4905,-2.493,-2.4962,-2.4965,-2.4933,-2.493,-2.499,-2.4997,-2.5004,-2.5088,-2.5021,-2.5025,-2.5027,-2.5211,-2.5214,-2.5216,0,0,0,0,0,0,-2.4811,-2.4823,-2.4921,-2.4875,-2.4887,-2.4902,-2.4931,-2.4932,-2.4949,-2.4968,-2.497,-2.4948,-2.4989,-2.4998,-2.5055,-2.509,-2.5027,-2.5031,-2.5208,-2.5212,-2.5215,-2.5257,0,0,0,0,0,0,-2.4807,-2.4822,-2.4848,-2.4876,-2.489,-2.4972,-2.4933,-2.4935,-2.4957,-2.4954,-2.4983,-2.4986,-2.4988,-2.5049,-2.506,-2.5095,-2.5034,-2.5205,-2.521,-2.5214,-2.5252,-2.5261,-2.5269,0,0,0,0,0,-2.4802,-2.4857,-2.485,-2.4862,-2.4924,-2.4974,-2.4982,-2.4983,-2.496,-2.4987,-2.4999,-2.4985,-2.5084,-2.5055,-2.5067,-2.5104,-2.5203,-2.5208,-2.5214,-2.5249,-2.5259,-2.5269,0,0,0,0,0,0,-2.4833,-2.4861,-2.4853,-2.4919,-2.4944,-2.497,-2.5004,-2.4995,-2.5027,-2.5022,-2.5022,-2.5029,-2.5089,-2.5102,-2.5069,-2.5173,-2.514,-2.5148,-2.5163,-2.5173,-2.5181,-2.5177,-2.5038,0,0,0,0,0,-2.4847,-2.4886,-2.4908,-2.4965,-2.4978,-2.4989,-2.5011,-2.501,-2.5036,-2.5046,-2.5063,-2.5088,-2.5125,-2.515,-2.5185,-2.5254,-2.526,-2.5285,-2.5293,-2.53,-2.5307,-2.5345,-2.5357,-2.5234,-2.5234,-2.5234,0,0,-2.4878,-2.4898,-2.4922,-2.4971,-2.4991,-2.5031,-2.4998,-2.5042,-2.5071,-2.5053,-2.5109,-2.5122,-2.515,-2.5214,-2.5243,-2.5227,-2.5342,-2.5307,-2.5312,-2.5316,-2.5352,-2.5363,-2.5374,-2.5238,-2.5237,-2.5236,0,0,-2.4954,-2.4973,-2.5022,-2.5042,-2.5072,-2.5079,-2.5091,-2.5118,-2.5126,-2.5182,-2.517,-2.5205,-2.5269,-2.529,-2.5309,-2.5394,-2.5382,-2.5405,-2.5448,-2.5485,-2.5495,-2.5503,-2.5534,-2.5545,-2.5412,-2.5412,-2.5412,0,-2.4988,-2.5048,-2.5048,-2.5093,-2.5115,-2.5101,-2.5151,-2.517,-2.521,-2.5226,-2.5207,-2.5287,-2.5306,-2.5375,-2.5395,-2.5411,-2.5425,-2.5402,-2.5493,-2.5502,-2.551,-2.5539,-2.5551,-2.5414,-2.5414,-2.5414,-2.5414,0,-2.5088,-2.513,-2.5166,-2.5206,-2.5232,-2.5279,-2.5286,-2.5313,-2.5309,-2.5318,-2.5376,-2.5397,-2.5437,-2.5453,-2.545,-2.5522,-2.5511,-2.5493,-2.546,-2.5524,-2.5552,-2.5563,-2.5418,-2.5417,-2.5417,-2.5416,0,0,-2.5185,-2.5225,-2.5238,-2.5256,-2.5288,-2.5321,-2.5367,-2.5406,-2.5429,-2.5457,-2.5496,-2.5551,-2.5535,-2.5556,-2.5556,-2.5588,-2.5654,-2.5566,-2.5567,-2.5582,-2.5735,-2.5749,-2.5762,-2.5647,-2.5649,-2.565,-2.5733,0,-2.5264,-2.5346,-2.5348,-2.5423,-2.5462,-2.5449,-2.5489,-2.5514,-2.5523,-2.5558,-2.5568,-2.5607,-2.5583,-2.5596,-2.5627,-2.564,-2.5685,-2.5634,-2.5683,-2.5685,-2.5677,-2.5776,-2.579,-2.5867,-2.5744,-2.5745,-2.5747,0,-2.5367,-2.5399,-2.5478,-2.5505,-2.5522,-2.5558,-2.5594,-2.5627,-2.5654,-2.5659,-2.5684,-2.5678,-2.5726,-2.5691,-2.5757,-2.5722,-2.5742,-2.5751,-2.5754,-2.5759,-2.572,-2.5784,-2.5891,-2.5903,-2.5763,-2.5762,-2.5761,0,-2.543,-2.5493,-2.5549,-2.5564,-2.5597,-2.5623,-2.5638,-2.5664,-2.5687,-2.5718,-2.5734,-2.577,-2.579,-2.5819,-2.5823,-2.5797,-2.5889,-2.5855,-2.5895,-2.5895,-2.5915,-2.5914,-2.6028,-2.5928,-2.5927,-2.5927,-2.5927,0,-2.5518,-2.5567,-2.5578,-2.5612,-2.5666,-2.5668,-2.5722,-2.5735,-2.5758,-2.5794,-2.5785,-2.5819,-2.5823,-2.5859,-2.5862,-2.5916,-2.5925,-2.5931,-2.5931,-2.5932,-2.5931,-2.5945,-2.594,-2.593,-2.593,-2.5929,-2.5928,0,-2.5598,-2.5607,-2.5667,-2.5694,-2.5701,-2.5741,-2.5763,-2.5796,-2.5805,-2.5851,-2.5862,-2.5876,-2.5917,-2.5925,-2.5973,-2.5976,-2.604,-2.6035,-2.6031,-2.6031,-2.6071,-2.6067,-2.6198,-2.6215,-2.6104,-2.6105,-2.6106,0,-2.5654,-2.5692,-2.5722,-2.5746,-2.5763,-2.5801,-2.5825,-2.5829,-2.5854,-2.5888,-2.5917,-2.5957,-2.599,-2.6057,-2.6071,-2.6108,-2.6104,-2.6147,-2.6109,-2.6109,-2.6105,-2.6103,-2.6107,-2.6155,-2.6156,-2.6157,-2.6158,0,-2.5752,-2.5755,-2.579,-2.5827,-2.5856,-2.5885,-2.5913,-2.5933,-2.594,-2.5969,-2.6011,-2.6037,-2.6086,-2.6127,-2.6164,-2.6179,-2.617,-2.6169,-2.6181,-2.6182,-2.6178,-2.6181,-2.6052,-2.6166,-2.6166,-2.6165,-2.6164,-2.6164,-2.5822,-2.5855,-2.5882,-2.5922,-2.5943,-2.5969,-2.6001,-2.6014,-2.605,-2.6091,-2.609,-2.6137,-2.6164,-2.6213,-2.623,-2.6267,-2.6253,-2.6269,-2.6273,-2.6277,-2.6281,-2.6172,-2.6273,-2.6273,-2.6273,-2.6273,-2.6272,0,-2.592,-2.5937,-2.5973,-2.6013,-2.6044,-2.6032,-2.6062,-2.6089,-2.613,-2.6156,-2.6189,-2.6237,-2.6277,-2.6294,-2.6333,-2.6359,-2.6355,-2.6369,-2.6367,-2.6371,-2.6291,-2.6278,-2.6371,-2.6371,-2.6371,-2.6371,-2.6371,-2.6371,-2.5975,-2.603,-2.6036,-2.6102,-2.6118,-2.6164,-2.6182,-2.6206,-2.6227,-2.6282,-2.6314,-2.6326,-2.6348,-2.6388,-2.6424,-2.6428,-2.6443,-2.6458,-2.646,-2.6386,-2.6376,-2.6367,-2.6354,-2.6461,-2.6461,-2.6537,-2.6537,-2.6538]}]]